Weather History for Havre, MT

Change the Weather History Date:

Monday, September 9, 2013

  Actual Average Record
Temperature  
Mean Temperature 65 °F 59 °F  
Max Temperature 77 °F 74 °F 93 °F (1981)
Min Temperature 53 °F 44 °F 26 °F (1962)
Degree Days  
Heating Degree Days 0 7  
Month to date heating degree days 3 51  
Since 1 July heating degree days 21 134  
Cooling Degree Days 0 1  
Month to date cooling degree days 58 12  
Year to date cooling degree days 433 379  
Growing Degree Days 16 (Base 50)    
Moisture  
Dew Point 54 °F    
Average Humidity 68    
Maximum Humidity 93    
Minimum Humidity 43    
Precipitation  
Precipitation 0.16 in 0.04 in 0.60 in (1921)
Month to date precipitation 0.80 0.34  
Year to date precipitation 15.90 9.01  
Snow  
Snow 0.00 in 0.00 in T in (1955)
Month to date snowfall 0.0 0.0  
Since 1 July snowfall 0.0 0.0  
Since 1 September snowfall 0.0 0.0  
Snow Depth 0.00 in    
Sea Level Pressure  
Sea Level Pressure 29.87 in    
Wind  
Wind Speed 10 mph (WSW)    
Max Wind Speed 18 mph    
Max Gust Speed 24 mph    
Visibility 10 miles    
Events Rain    
T = Trace of Precipitation, MM = Missing Value Source: NWS Daily Summary

Daily Weather History Graph

Daily Weather History Graph

Search for Another Location

Airport:

Trip Planner

Search our weather history database for the weather conditions in past years. The results will help you decide how hot, cold, wet, or windy it might be!

Date:

Astronomy

Sep. 09, 2013 Rise Set
Actual Time 6:47 AM MDT 7:43 PM MDT
Civil Twilight 6:15 AM MDT 8:15 PM MDT
Nautical Twilight 5:37 AM MDT 8:53 PM MDT
Astronomical Twilight 4:57 AM MDT 9:33 PM MDT
Moon 11:38 AM MDT (9/9) 9:35 PM MDT (9/9)
Length of Visible Light 13h 59m
Length of Day
12h 55m
Waxing Crescent, 19% of the Moon is Illuminated
Sep 9
Waxing Crescent
Sep 12
First Quarter
Sep 19
Full
Sep 26
Last Quarter
Oct 4
New

Hourly Weather History & Observations

Time (MDT) Temp. Dew Point Humidity Pressure Visibility Wind Dir Wind Speed Gust Speed Precip Events Conditions
12:53 AM 53.1 °F 52.0 °F 96% 29.84 in - Calm Calm - N/A   Partly Cloudy
1:53 AM 55.9 °F 53.1 °F 90% 29.82 in - SW 12.7 mph - 0.01 in Rain Light Rain
2:53 AM 55.9 °F 51.1 °F 84% 29.81 in - SW 15.0 mph - 0.00 in   Partly Cloudy
3:53 AM 55.9 °F 50.0 °F 80% 29.82 in - SW 16.1 mph 24.2 mph N/A   Mostly Cloudy
4:53 AM 57.0 °F 52.0 °F 83% 29.83 in - SSW 16.1 mph - 0.00 in Rain Light Rain
5:53 AM 55.9 °F 52.0 °F 87% 29.83 in - SW 16.1 mph - 0.00 in Rain Light Rain
6:53 AM 55.0 °F 53.1 °F 93% 29.84 in - SW 10.4 mph - 0.05 in Rain Light Rain
7:36 AM 55.4 °F 53.6 °F 94% 29.85 in - SW 16.1 mph - 0.02 in Rain Light Rain
7:53 AM 55.9 °F 54.0 °F 93% 29.85 in - SW 15.0 mph - 0.05 in Rain Rain
8:53 AM 57.0 °F 55.0 °F 93% 29.86 in - SSW 10.4 mph - 0.04 in   Overcast
9:53 AM 59.0 °F 57.0 °F 93% 29.87 in - SW 10.4 mph - 0.01 in   Overcast
10:03 AM 59.0 °F 57.2 °F 94% 29.88 in - SW 11.5 mph - 0.00 in Rain Light Rain
10:53 AM 61.0 °F 57.9 °F 90% 29.88 in - West 9.2 mph - 0.00 in   Overcast
11:53 AM 64.9 °F 57.0 °F 75% 29.88 in 10.0 mi WNW 9.2 mph - N/A   Overcast
12:53 PM 66.9 °F 55.9 °F 68% 29.89 in 10.0 mi WNW 9.2 mph - N/A   Overcast
1:53 PM 71.1 °F 54.0 °F 55% 29.88 in 10.0 mi WNW 9.2 mph 19.6 mph N/A   Mostly Cloudy
2:53 PM 72.0 °F 53.1 °F 51% 29.86 in 10.0 mi West 9.2 mph - N/A   Partly Cloudy
3:53 PM 75.9 °F 55.0 °F 48% 29.84 in 10.0 mi WNW 13.8 mph 19.6 mph N/A   Clear
4:53 PM 77.0 °F 53.1 °F 43% 29.85 in 10.0 mi NW 12.7 mph - N/A   Clear
5:53 PM 75.9 °F 53.1 °F 45% 29.86 in 10.0 mi NW 16.1 mph - N/A   Clear
6:53 PM 75.0 °F 54.0 °F 48% 29.87 in 10.0 mi NNW 5.8 mph - N/A   Clear
7:53 PM 69.1 °F 54.0 °F 58% 29.89 in 10.0 mi Calm Calm - N/A   Partly Cloudy
8:53 PM 63.0 °F 55.0 °F 75% 29.93 in 10.0 mi SSW 5.8 mph - N/A   Clear
9:53 PM 60.1 °F 55.0 °F 83% 29.94 in 10.0 mi South 6.9 mph - N/A   Clear
10:53 PM 57.0 °F 54.0 °F 89% 29.95 in 10.0 mi South 4.6 mph - N/A   Partly Cloudy
11:53 PM 57.9 °F 53.1 °F 84% 29.94 in 10.0 mi SW 3.5 mph - N/A   Partly Cloudy